KC7NGC-B Weather Reports


time (UTC)temp
F
wind
direction
speed
knots
gust
knots
rain 1hr
in
rain 24hr
in
rain mn
in
humidity
%
barometer
mb
20260901060625 70 318 2.6 3.5 0.00 0.00 0.00 1 1008.7
20260901055620 71 339 3.5 4.3 0.00 0.00 0.00 1 1008.7
20260901054637 72 346 2.6 3.5 0.00 0.00 0.00 1 1008.8
20260901053714 72 355 2.6 3.5 0.00 0.00 0.00 1 1008.9
20260901052630 72 350 3.5 3.5 0.00 0.00 0.00 1 1009.0
20260901051627 73 356 1.7 2.6 0.00 0.00 0.00 1 1009.0
20260901050624 72 345 1.7 1.7 0.00 0.00 0.00 1 1009.1
20260901045620 73 337 1.7 2.6 0.00 0.00 0.00 1 1009.1
20260901044616 73 332 1.7 2.6 0.00 0.00 0.00 1 1009.2
20260901043633 73 339 3.5 4.3 0.00 0.00 0.00 1 1009.1
20260901042630 73 321 2.6 3.5 0.00 0.00 0.00 1 1009.1
20260901041708 74 324 2.6 3.5 0.00 0.00 0.00 1 1009.0
20260901040624 74 328 2.6 4.3 0.00 0.00 0.00 1 1009.0
20260901035620 73 332 4.3 6.1 0.00 0.00 0.00 1 1009.0
20260901034617 73 320 5.2 6.1 0.00 0.00 0.00 1 1009.1
20260901033633 74 326 4.3 6.1 0.00 0.00 0.00 1 1009.1
20260901032630 74 320 3.5 4.3 0.00 0.00 0.00 1 1008.8
20260901031627 74 334 5.2 6.1 0.00 0.00 0.00 1 1008.9
20260901030624 75 336 4.3 5.2 0.00 0.00 0.00 1 1009.0
20260901025620 76 335 4.3 5.2 0.00 0.00 0.00 1 1008.9
20260901024636 76 337 4.3 5.2 0.00 0.00 0.00 1 1008.9
20260901023633 76 327 2.6 3.5 0.00 0.00 0.00 1 1008.9
20260901022630 78 318 2.6 2.6 0.00 0.00 0.00 1 1009.1
20260901021627 80 344 2.6 3.5 0.00 0.00 0.00 1 1008.8
20260901020623 82 6 3.5 5.2 0.00 0.00 0.00 1 1008.9
20260901015620 83 359 4.3 5.2 0.00 0.00 0.00 1 1009.0
20260901014638 83 1 3.5 5.2 0.00 0.00 0.00 1 1009.1
20260901013634 84 4 4.3 5.2 0.00 0.00 0.00 1 1009.2
20260901012630 84 27 4.3 6.1 0.00 0.00 0.00 1 1009.3
20260901011627 85 10 5.2 7.0 0.00 0.00 0.00 1 1009.3
20260901010624 85 11 4.3 7.0 0.00 0.00 0.00 1 1009.6
20260901005620 85 15 6.1 8.7 0.00 0.00 0.00 1 1009.6
20260901004637 85 17 3.5 4.3 0.00 0.00 0.00 1 1009.7
20260901003634 85 19 6.1 9.6 0.00 0.00 0.00 1 1009.8
20260901002630 85 11 6.1 7.8 0.00 0.00 0.00 1 1009.9
20260901001627 84 9 4.3 6.1 0.00 0.00 0.00 1 1010.1
20260901000625 85 34 4.3 7.0 0.00 0.00 0.00 1 1010.3
20260831235619 85 42 4.3 6.1 0.00 0.00 0.00 1 1010.4
20260831234621 84 24 6.1 8.7 0.00 0.00 0.00 1 1010.6
20260831233633 84 37 3.5 5.2 0.00 0.00 0.00 1 1010.9
20260831232649 83 24 4.3 5.2 0.00 0.00 0.00 1 1011.0
20260831231625 83 22 4.3 6.1 0.00 0.00 0.00 1 1011.2
20260831230622 83 37 5.2 7.0 0.00 0.00 0.00 1 1011.2
20260831225619 82 26 6.1 8.7 0.00 0.00 0.00 1 1011.4
20260831224635 81 60 5.2 7.0 0.00 0.00 0.00 1 1011.6
20260831223632 82 51 5.2 7.0 0.00 0.00 0.00 1 1011.8
20260831222628 81 19 5.2 6.1 0.00 0.00 0.00 1 1011.8
20260831221625 81 52 5.2 7.0 0.00 0.00 0.00 1 1011.9
20260831220621 80 44 4.3 7.0 0.00 0.00 0.00 1 1012.2
20260831215621 81 52 4.3 6.1 0.00 0.00 0.00 1 1012.3
20260831214634 81 35 6.1 7.8 0.00 0.00 0.00 1 1012.4
20260831213630 79 52 3.5 5.2 0.00 0.00 0.00 1 1012.8
20260831212627 79 40 4.3 7.8 0.00 0.00 0.00 1 1012.8
20260831211704 79 55 5.2 7.0 0.00 0.00 0.00 1 1013.1
20260831210620 78 50 4.3 5.2 0.00 0.00 0.00 1 1013.3
20260831205636 78 36 5.2 7.8 0.00 0.00 0.00 1 1013.3
20260831204633 77 39 3.5 4.3 0.00 0.00 0.00 1 1013.6
20260831203630 77 41 3.5 7.0 0.00 0.00 0.00 1 1013.8
20260831202626 76 39 3.5 4.3 0.00 0.00 0.00 1 1013.9
20260831201623 76 29 2.6 3.5 0.00 0.00 0.00 1 1014.1
20260831200620 76 58 4.3 7.0 0.00 0.00 0.00 1 1014.3
20260831195616 75 60 6.1 7.8 0.00 0.00 0.00 1 1014.4
20260831194632 74 38 4.3 7.8 0.00 0.00 0.00 1 1014.7
20260831193629 74 33 5.2 7.8 0.00 0.00 0.00 1 1014.7
20260831192625 74 33 4.3 7.0 0.00 0.00 0.00 1 1015.0
20260831191643 73 63 4.3 7.0 0.00 0.00 0.00 1 1015.2
20260831190619 73 18 5.2 6.1 0.00 0.00 0.00 1 1015.3
20260831185636 72 27 5.2 6.1 0.00 0.00 0.00 1 1015.4
20260831184632 71 28 4.3 6.1 0.00 0.00 0.00 1 1015.7
20260831183629 70 42 2.6 5.2 0.00 0.00 0.00 1 1015.7
20260831182625 70 32 4.3 5.2 0.00 0.00 0.00 1 1015.9
20260831181622 70 52 4.3 7.0 0.00 0.00 0.00 1 1016.0
20260831180639 69 25 2.6 3.5 0.00 0.00 0.00 1 1016.1
20260831175635 69 12 4.3 6.1 0.00 0.00 0.00 1 1016.3
20260831174632 68 24 4.3 5.2 0.00 0.00 0.00 1 1016.3
20260831173629 68 43 3.5 5.2 0.00 0.00 0.00 1 1016.3
20260831172645 67 340 3.5 4.3 0.00 0.00 0.00 1 1016.3
20260831171622 67 340 1.7 2.6 0.00 0.00 0.00 1 1016.4
20260831170618 67 51 0.9 1.7 0.00 0.00 0.00 1 1016.8
20260831165635 65 0.0 0.9 0.00 0.00 0.00 1 1016.5
20260831164631 65 36 2.6 3.5 0.00 0.00 0.00 1 1016.9
20260831163628 65 86 0.9 2.6 0.00 0.00 0.00 1 1016.8
20260831162625 64 22 1.7 3.5 0.00 0.00 0.00 1 1016.9
20260831161621 63 66 2.6 3.5 0.00 0.00 0.00 1 1016.9
20260831160618 63 40 2.6 3.5 0.00 0.00 0.00 1 1017.0
20260831155634 63 35 3.5 5.2 0.00 0.00 0.00 1 1017.0
20260831154633 62 338 1.7 4.3 0.00 0.00 0.00 1 1017.0
20260831153628 62 16 1.7 2.6 0.00 0.00 0.00 1 1017.1
20260831152627 60 328 0.9 1.7 0.00 0.00 0.00 1 1017.0
20260831151620 60 322 1.7 2.6 0.00 0.00 0.00 1 1017.0
20260831150617 60 335 1.7 2.6 0.00 0.00 0.00 1 1016.9
20260831145654 59 340 2.6 3.5 0.00 0.00 0.00 1 1017.0
20260831144631 58 353 2.6 3.5 0.00 0.00 0.00 1 1016.9
20260831143649 58 337 2.6 3.5 0.00 0.00 0.00 1 1016.7
20260831142625 59 320 0.0 1.7 0.00 0.00 0.00 1 1016.6
20260831141621 57 0.0 1.7 0.00 0.00 0.00 1 1016.5
20260831140621 56 279 0.9 1.7 0.00 0.00 0.00 1 1016.6
20260831135635 55 264 0.9 2.6 0.00 0.00 0.00 1 1016.5
20260831134631 55 0.0 0.9 0.00 0.00 0.00 1 1016.6
20260831133629 54 251 3.5 4.3 0.00 0.00 0.00 1 1016.6
20260831132645 53 207 1.7 3.5 0.00 0.00 0.00 1 1016.6
20260831131621 53 221 0.9 1.7 0.00 0.00 0.00 1 1016.5
20260831130618 54 180 1.7 2.6 0.00 0.00 0.00 1 1016.3
20260831125636 54 97 0.9 1.7 0.00 0.00 0.00 1 1016.3
20260831124631 55 295 0.9 2.6 0.00 0.00 0.00 1 1016.4
20260831123628 55 0.0 0.9 0.00 0.00 0.00 1 1016.4
20260831122625 55 276 0.0 0.9 0.00 0.00 0.00 1 1016.3
20260831121641 54 250 0.9 1.7 0.00 0.00 0.00 1 1016.3
20260831120619 55 277 1.7 1.7 0.00 0.00 0.00 1 1016.3
20260831115634 55 218 1.7 2.6 0.00 0.00 0.00 1 1016.3
20260831114652 55 252 0.9 1.7 0.00 0.00 0.00 1 1016.2
20260831113629 56 213 1.7 2.6 0.00 0.00 0.00 1 1016.4
20260831112625 56 238 1.7 1.7 0.00 0.00 0.00 1 1016.4
20260831111622 55 227 0.9 1.7 0.00 0.00 0.00 1 1016.3
20260831110619 55 270 0.9 0.9 0.00 0.00 0.00 1 1016.4
20260831105620 56 246 0.9 1.7 0.00 0.00 0.00 1 1016.4
20260831104617 56 238 0.9 1.7 0.00 0.00 0.00 1 1016.2
20260831103633 56 240 1.7 1.7 0.00 0.00 0.00 1 1016.3
20260831102630 57 217 2.6 2.6 0.00 0.00 0.00 1 1016.3
20260831101627 57 261 1.7 1.7 0.00 0.00 0.00 1 1016.2
20260831100623 56 233 1.7 1.7 0.00 0.00 0.00 1 1016.3
20260831095620 57 226 0.9 1.7 0.00 0.00 0.00 1 1016.6
20260831094656 57 290 0.9 1.7 0.00 0.00 0.00 1 1016.6
20260831093633 57 276 0.9 1.7 0.00 0.00 0.00 1 1016.7
20260831092629 57 283 0.0 0.9 0.00 0.00 0.00 1 1016.8
20260831091626 57 265 0.9 1.7 0.00 0.00 0.00 1 1016.7
20260831090622 58 282 0.9 1.7 0.00 0.00 0.00 1 1016.7
20260831085620 58 268 0.9 1.7 0.00 0.00 0.00 1 1016.8
20260831084636 58 0.0 0.9 0.00 0.00 0.00 1 1016.9
20260831083633 59 265 0.9 1.7 0.00 0.00 0.00 1 1016.9
20260831082630 59 264 0.9 1.7 0.00 0.00 0.00 1 1016.7
20260831081646 59 233 0.0 0.9 0.00 0.00 0.00 1 1016.9
20260831080623 60 210 0.0 0.9 0.00 0.00 0.00 1 1016.8
20260831075619 61 267 0.9 0.9 0.00 0.00 0.00 1 1016.8
20260831074616 60 274 0.9 1.7 0.00 0.00 0.00 1 1016.8
20260831073633 61 263 0.9 1.7 0.00 0.00 0.00 1 1016.9
20260831072629 60 270 0.9 1.7 0.00 0.00 0.00 1 1016.8
20260831071626 60 217 0.9 1.7 0.00 0.00 0.00 1 1016.9
20260831070702 60 222 1.7 1.7 0.00 0.00 0.00 1 1016.6
20260831065621 61 249 1.7 1.7 0.00 0.00 0.00 1 1016.8
20260831064636 61 245 1.7 1.7 0.00 0.00 0.00 1 1016.9
20260831063632 62 227 1.7 1.7 0.00 0.00 0.00 1 1017.0
20260831062629 62 224 0.0 1.7 0.00 0.00 0.00 1 1016.9
20260831061626 62 0.0 0.0 0.00 0.00 0.00 1 1016.9